Weather in Novoye Selo

Russia / Smolensk Oblast     55°17′44″N   34°19′14″E
temp.,
°C
wind,
m/s
gust,
m/s
humid.,
%
clouds,
%
prec.,
mm/h
press.,
hPa
HPBL,
m
12 april, mon
mon1200:00+7sse33750 0.0 103142
03:00+6se33780 0.0 103239
06:00+5ese357995 0.0 103266
09:00+9ese41063100 0.0 1031411
12:00+12ese61044100 0.0 1029843
15:00+12ese6849100 0.0 1027889
18:00+12ese4972100 0.0 1026608
21:00+9ese31189100 0.0 1026316
13 april, tue
tue1300:00+8ese3995100 0.0 1024201
03:00+7ese3895100 0.0 1023159
06:00+7se3594100 0.0 102397
09:00+11sse487797 0.0 1023241
12:00+16s5855100 0.0 1022757
15:00+19sse684599 0.0 10212254
18:00+16se485961 0.0 1020296
21:00+12se387288 0.0 1021129
14 april, wed
wed1400:00+10sse310798 0.0 1020182
03:00+9sse378494 0.0 1020110
06:00+7sse389076 0.0 1019157
09:00+12s4879100 0.0 1019382
12:00+15s5768100 0.1 10181101
15:00+15s476487 1.4 10171093
18:00+13se247798 1.1 1017183
21:00+11ene228299 1.3 101711
15 april, thu
thu1500:00+10ene2287100 0.1 101728
03:00+9s2285100 0.1 101723
06:00+9nne2393100 0.6 101659
09:00+12ese387898 0.6 1017562
12:00+14sse476394 0.1 10161211
15:00+14sse4665100 0.7 1016975
18:00+13ssw3474100 0.8 1016135
21:00+10wnw239098 2.1 101771
16 april, fri
fri1600:00+9n489468 0.3 1017200
03:00+8ne499368 0.3 1016175
06:00+7ne5109681 0.0 1017268
09:00+9ne6108989 0.0 1018408
12:00+13ne6868100 0.0 1018878
15:00+14ene6965100 0.4 10181474
18:00+12ne8137240 0.2 1019894
21:00+8ne8168222 0.2 1021672